User: anonymous   Login
Location: Waco, TX
(31.5480°N, 97.1670°W)
Time: 20:45:29
(UTC-06:00)
Language:

ISS - Orbit

View from above orbital plane
View from above orbital plane
View from above satellite
View from above satellite

Ground track
Ground track

The orbit data is extracted from the following two-line orbital elements,

1 25544U 98067A   18321.39132369  .00016717  00000-0  10270-3 0  9020
2 25544  51.6403 335.2616 0004867  55.1622 304.9987 15.53952654 22338
Epoch (UTC): 17 November 2018 09:23:30
Eccentricity: 0.0004867
inclination: 51.6403°
perigee height: 402 km
apogee height: 408 km
right ascension of ascending node: 335.2616°
argument of perigee: 55.1622°
revolutions per day: 15.53952654
mean anomaly at epoch: 304.9987°
orbit number at epoch: 2233

The dashed part of the orbit path shows where the satellite is in the earth's shadow,  

DLR